Showing default

COSMOS 2453, 35500

Orbit data source: Space-Track

COSMOS 2453, 35500 is a payload satellite owned by KVR (CIS) in LEO that was launched on Mon, 06 Jul 2009 UTC via an ROKOT launch vehicle from the Plesetsk Missile And Space Complex (PKMTR). Payload-class satellites include a variety of spacecraft equipped with specific instruments for various scientific and technological missions. These include communications satellites like Starlink; space stations such as the ISS; scientific satellites like the Hubble; Earth observation satellites from companies like Planet Labs, Umbra, and HawkEye 360; GPS; miniature CubeSats for education and research; and military/defense satellites.

Loading next visibility...
Identifier
35500, 2009-036C
Orbit
LEO
Country
Flag of CISCIS
Related business
Manufacturer
Resehetnev ISS
Mission
Operational Defense Communications
Bus & Motor
STRELA-3, Unknown motor
Mass
225 kg wet, 225 kg dry
Launch date (UTC)
2009-07-06 (16 years ago)
Launch vehicle
ROKOT
Launch site
Plesetsk Missile And Space Complex (PKMTR)
Object type
Payload
Rocket body
Debris
Shape & HBR
Cyl + 1 Ant, 3.5 m
Radar Cross Section
1.583 m², Medium (>0.1 m² and < 1m²)

Expand to show TLE details & history
Last TLE update: 6 hours ago

TLE from 6 hours ago
0 COSMOS 2453
1 35500U 09036C   25298.88468164  .00000031  00000-0  15595-3 0  9994
2 35500  82.4892 233.4226 0006691 326.1488  33.9163 12.41513789738907
Epoch: 2025-10-25T21:13Z
TLE epoch observation values (Epoch: 2025-10-25T21:13:56.493Z)
Latitude
-0.00003°
Longitude
-119.57161°
Altitude
1,498.516 km
Speed
7.117 km/s
True Right ascension
15h 33m 41s
True Declination
0° 00' 00"
Sunlit
Object was in daylight at epoch
Visualization orbit readout
Latitude
Unknown
Longitude
Unknown
Altitude
Unknown
Speed
Unknown
Apparent Right ascension
Unknown
Apparent Declination
Unknown
Sunlit
N/A
Visualization observer readout
Local Sidereal Time
22:45:21
Azimuth
Unknown
Elevation
Unknown
Doppler factor
Unknown
Orbital elements
Apogee altitude
1,502.816 km
Perigee altitude
1,492.277 km
Semi-major axis
7,875.683 km
Eccentricity
0.00067
Inclination
82.4892°
RAAN
233.4226°
Arg. of periapsis
326.1488°
True anomaly
33.95911°
Mean anomaly
33.9163°
Eccentric anomaly
33.9377°
Mean motion
3.10535 °/min
Orbital period
115.93 mins
BSTAR
0.00015595
Loading maneuver chart data...
Computing Atmospheric mass density...
Loading historical data...
Loading historical data...
Loading historical data...
Loading historical data...
Loading historical data...
Loading historical data...
Loading historical data...
Other satellites on launch #36 in the year 2009 (2009-07-06 UTC)

Documentation

Showing up to 5 results
|